#�ϑ�����,���ϕ���,���ϕ���,�ő啗��,�ő啗����������,�ő�u�ԕ���,�ő�u�ԕ�����������
#(�N����),(m/s)   ,(16����),(m/s)   ,(16����)        ,(m/s)       ,(16����)            
2016/5/7 0:01,4.1,2,4.2,2,5.1,3
2016/5/7 0:02,4.1,2,4.1,2,6.4,4
2016/5/7 0:03,4,2,4.1,2,7.6,3
2016/5/7 0:04,4.1,2,4.1,2,7.4,2
2016/5/7 0:05,3.9,2,4.1,2,6.2,4
2016/5/7 0:06,4.1,2,4.1,2,7.1,3
2016/5/7 0:07,4,2,4.1,2,6.4,3
2016/5/7 0:08,3.9,2,4,2,5.1,2
2016/5/7 0:09,3.8,2,3.9,2,5.6,3
2016/5/7 0:10,3.6,2,3.7,2,5.7,3
2016/5/7 0:11,3.7,3,3.7,2,5,3
2016/5/7 0:12,3.8,3,3.8,2,7.6,3
2016/5/7 0:13,3.8,3,3.9,2,5.4,3
2016/5/7 0:14,3.7,3,3.7,2,5.6,3
2016/5/7 0:15,3.7,3,3.7,2,5.1,3
2016/5/7 0:16,3.6,3,3.7,2,4.9,3
2016/5/7 0:17,3.5,3,3.5,2,5.5,4
2016/5/7 0:18,3.7,3,3.7,2,6.5,3
2016/5/7 0:19,3.7,3,3.7,3,5.8,4
2016/5/7 0:20,3.7,3,3.7,3,3.7,3
2016/5/7 0:21,3.8,3,3.8,3,5.2,4
2016/5/7 0:22,3.6,3,3.8,3,4.2,3
2016/5/7 0:23,3.6,3,3.7,3,5.2,3
2016/5/7 0:24,3.6,3,3.6,3,4.4,3
2016/5/7 0:25,3.5,3,3.5,3,4.4,3
2016/5/7 0:26,3.5,3,3.5,3,4.4,4
2016/5/7 0:27,3.4,3,3.5,3,4.9,3
2016/5/7 0:28,3.4,3,3.5,3,6.2,3
2016/5/7 0:29,3.4,3,3.4,3,4.9,3
2016/5/7 0:30,3.4,3,3.4,3,5.2,3
2016/5/7 0:31,3.5,3,3.5,3,6.2,3
2016/5/7 0:32,3.5,3,3.5,3,4.9,3
2016/5/7 0:33,3.5,3,3.5,3,5,2
2016/5/7 0:34,3.5,3,3.5,3,5.1,2
2016/5/7 0:35,3.5,3,3.6,3,5,3
2016/5/7 0:36,3.5,3,3.5,3,6.2,4
2016/5/7 0:37,3.5,3,3.6,3,5.2,3
2016/5/7 0:38,3.5,3,3.5,3,5.8,2
2016/5/7 0:39,3.5,3,3.5,3,4.3,3
2016/5/7 0:40,3.5,2,3.5,3,6,2
2016/5/7 0:41,3.6,3,3.6,3,5.5,2
2016/5/7 0:42,3.5,2,3.6,3,5.2,3
2016/5/7 0:43,3.5,3,3.5,3,5.7,3
2016/5/7 0:44,3.4,3,3.5,3,5.4,2
2016/5/7 0:45,3.5,3,3.5,3,6,3
2016/5/7 0:46,3.6,3,3.6,3,6.2,3
2016/5/7 0:47,3.6,3,3.6,3,5.2,4
2016/5/7 0:48,3.4,3,3.6,3,5.2,3
2016/5/7 0:49,3.5,3,3.5,3,5.2,3
2016/5/7 0:50,3.5,3,3.6,3,6.1,3
2016/5/7 0:51,3.4,3,3.5,3,5.2,3
2016/5/7 0:52,3.5,3,3.5,3,5.7,3
2016/5/7 0:53,3.6,3,3.6,3,5.4,3
2016/5/7 0:54,3.8,3,3.8,3,6.1,3
2016/5/7 0:55,3.6,3,3.8,3,4.1,1
2016/5/7 0:56,3.6,3,3.6,3,4.9,3
2016/5/7 0:57,3.6,3,3.6,3,4.9,5
2016/5/7 0:58,3.5,3,3.6,3,3.6,3
2016/5/7 0:59,3.4,3,3.5,3,6,3
2016/5/7 1:00,3.4,3,3.4,3,5.5,3
2016/5/7 1:01,3.5,3,3.5,3,7.1,4
2016/5/7 1:02,3.5,3,3.5,3,6.4,3
2016/5/7 1:03,3.4,3,3.5,3,5.1,4
2016/5/7 1:04,3.2,3,3.4,3,3.9,4
2016/5/7 1:05,3.2,3,3.3,3,3.3,4
2016/5/7 1:06,3,3,3.2,3,4.4,4
2016/5/7 1:07,2.9,3,3,3,4.7,4
2016/5/7 1:08,3,3,3,3,5,2
2016/5/7 1:09,3.1,3,3.1,3,6.3,2
2016/5/7 1:10,3.2,3,3.2,3,6,2
2016/5/7 1:11,3.2,3,3.2,3,5.2,3
2016/5/7 1:12,3.2,3,3.2,3,5.4,3
2016/5/7 1:13,3.2,3,3.2,3,5.8,3
2016/5/7 1:14,3.4,3,3.4,3,6.2,2
2016/5/7 1:15,3.4,3,3.4,3,3.7,3
2016/5/7 1:16,3.6,3,3.6,3,6,4
2016/5/7 1:17,3.7,3,3.7,3,6.1,3
2016/5/7 1:18,3.7,3,3.7,3,6.1,4
2016/5/7 1:19,3.6,3,3.7,3,4.3,3
2016/5/7 1:20,3.6,3,3.6,3,4.7,4
2016/5/7 1:21,3.4,3,3.6,3,3.3,3
2016/5/7 1:22,3.2,3,3.4,3,3.7,3
2016/5/7 1:23,3.1,3,3.2,3,4.3,1
2016/5/7 1:24,3,3,3.1,3,4.4,3
2016/5/7 1:25,3,3,3.1,3,3.8,3
2016/5/7 1:26,3.1,3,3.1,3,5.1,4
2016/5/7 1:27,3,3,3.1,3,5.2,3
2016/5/7 1:28,2.9,3,3,3,4.3,4
2016/5/7 1:29,2.9,3,2.9,3,5.1,3
2016/5/7 1:30,2.8,3,2.9,3,4.2,1
2016/5/7 1:31,3,3,3,3,5.8,3
2016/5/7 1:32,3.2,3,3.2,3,5.5,3
2016/5/7 1:33,3.2,3,3.2,3,4.7,4
2016/5/7 1:34,3.2,3,3.2,3,5.4,3
2016/5/7 1:35,3.3,3,3.3,3,5.8,3
2016/5/7 1:36,3.3,3,3.4,3,5.5,4
2016/5/7 1:37,3.3,3,3.3,3,4.5,3
2016/5/7 1:38,3.3,3,3.4,3,3.8,3
2016/5/7 1:39,3.3,3,3.4,3,3.7,3
2016/5/7 1:40,3.4,3,3.4,3,3.9,4
2016/5/7 1:41,3.2,3,3.3,3,3.5,3
2016/5/7 1:42,3,3,3.1,3,3.6,3
2016/5/7 1:43,2.9,3,2.9,3,4.3,4
2016/5/7 1:44,2.9,3,3,3,4.2,3
2016/5/7 1:45,2.7,3,2.9,3,3,3
2016/5/7 1:46,2.6,3,2.7,3,2.9,3
2016/5/7 1:47,2.6,3,2.6,3,4.4,3
2016/5/7 1:48,2.5,3,2.6,3,3.9,3
2016/5/7 1:49,2.5,3,2.5,3,3.2,3
2016/5/7 1:50,2.4,3,2.5,3,3.1,3
2016/5/7 1:51,2.5,3,2.5,3,4.8,3
2016/5/7 1:52,2.5,3,2.5,3,3.7,2
2016/5/7 1:53,2.6,3,2.6,3,5,3
2016/5/7 1:54,2.6,2,2.6,3,4.4,3
2016/5/7 1:55,2.7,2,2.7,3,3.7,2
2016/5/7 1:56,2.7,2,2.7,2,3.9,2
2016/5/7 1:57,2.7,2,2.7,2,4.1,3
2016/5/7 1:58,2.7,2,2.7,2,2.9,3
2016/5/7 1:59,2.6,2,2.7,2,3.2,3
2016/5/7 2:00,2.8,2,2.8,2,3.7,3
2016/5/7 2:01,2.8,2,2.8,2,3.9,3
2016/5/7 2:02,2.8,3,2.8,2,3.2,4
2016/5/7 2:03,2.7,3,2.8,2,3.2,1
2016/5/7 2:04,2.6,3,2.7,2,3,2
2016/5/7 2:05,2.5,3,2.6,2,2.6,2
2016/5/7 2:06,2.5,3,2.5,2,3.9,3
2016/5/7 2:07,2.5,3,2.6,2,3.9,2
2016/5/7 2:08,2.5,3,2.5,2,3.8,3
2016/5/7 2:09,2.6,3,2.6,2,3.8,3
2016/5/7 2:10,2.6,3,2.6,2,5.6,3
2016/5/7 2:11,2.6,2,2.6,2,5.6,3
2016/5/7 2:12,2.7,2,2.7,3,4.8,3
2016/5/7 2:13,2.8,2,2.8,2,4.7,3
2016/5/7 2:14,2.9,3,2.9,3,5.2,3
2016/5/7 2:15,3,3,3,3,3.3,3
2016/5/7 2:16,2.9,3,3,3,4.2,3
2016/5/7 2:17,3,3,3,3,4.5,3
2016/5/7 2:18,3,3,3,3,4.1,3
2016/5/7 2:19,3,3,3,3,5.1,2
2016/5/7 2:20,3.1,3,3.1,3,5.7,3
2016/5/7 2:21,3.1,3,3.1,3,5.2,3
2016/5/7 2:22,3.1,3,3.2,3,4.7,3
2016/5/7 2:23,3.2,3,3.2,3,4.7,3
2016/5/7 2:24,3.1,3,3.1,3,4.4,3
2016/5/7 2:25,3.2,3,3.2,3,4.4,2
2016/5/7 2:26,3.2,3,3.2,3,4.7,3
2016/5/7 2:27,3.2,3,3.3,3,4.5,4
2016/5/7 2:28,3.2,3,3.2,3,3.7,3
2016/5/7 2:29,3.1,3,3.2,3,4.8,3
2016/5/7 2:30,3.1,3,3.1,3,4.5,3
2016/5/7 2:31,3.1,3,3.1,3,4.8,3
2016/5/7 2:32,3.1,3,3.1,3,4.4,2
2016/5/7 2:33,3,3,3.1,3,3.5,2
2016/5/7 2:34,2.8,3,3,3,3.5,3
2016/5/7 2:35,2.8,3,2.8,3,3.2,3
2016/5/7 2:36,2.7,3,2.8,3,4.2,3
2016/5/7 2:37,2.7,3,2.7,3,3.9,3
2016/5/7 2:38,2.9,3,2.9,3,5,3
2016/5/7 2:39,2.9,3,2.9,3,4.3,2
2016/5/7 2:40,2.7,3,2.9,3,3,3
2016/5/7 2:41,2.7,3,2.7,3,4.4,3
2016/5/7 2:42,2.6,3,2.7,3,3.9,4
2016/5/7 2:43,2.7,3,2.7,3,4.2,3
2016/5/7 2:44,2.8,3,2.8,3,3.5,2
2016/5/7 2:45,2.9,3,2.9,3,4.2,2
2016/5/7 2:46,2.9,3,2.9,3,4.8,3
2016/5/7 2:47,2.8,3,2.9,3,4.2,2
2016/5/7 2:48,2.6,2,2.8,3,4.3,3
2016/5/7 2:49,2.7,2,2.7,3,5.1,3
2016/5/7 2:50,2.7,2,2.7,3,3.2,2
2016/5/7 2:51,2.6,2,2.6,3,4.1,3
2016/5/7 2:52,2.6,2,2.6,3,4.2,3
2016/5/7 2:53,2.6,2,2.7,3,4.5,3
2016/5/7 2:54,2.6,2,2.6,3,4.9,2
2016/5/7 2:55,2.6,2,2.6,3,3.5,4
2016/5/7 2:56,2.5,2,2.6,3,4.1,2
2016/5/7 2:57,2.7,2,2.7,3,6,3
2016/5/7 2:58,2.9,2,2.9,2,6.2,3
2016/5/7 2:59,2.9,2,2.9,2,5.4,3
2016/5/7 3:00,3,2,3,2,3.8,3
2016/5/7 3:01,2.9,2,3,2,3.9,2
2016/5/7 3:02,3,2,3,2,4.7,3
2016/5/7 3:03,3,3,3,2,4.7,3
2016/5/7 3:04,3.1,3,3.1,3,4.7,2
2016/5/7 3:05,3.1,2,3.1,3,4.2,1
2016/5/7 3:06,3.1,2,3.2,2,4.9,3
2016/5/7 3:07,3.1,3,3.2,2,4.4,3
2016/5/7 3:08,3,3,3.1,2,4.3,3
2016/5/7 3:09,2.9,3,3,2,4.5,3
2016/5/7 3:10,2.8,3,2.9,2,2.9,3
2016/5/7 3:11,2.8,3,2.8,2,3.3,3
2016/5/7 3:12,2.8,3,2.8,2,4.8,3
2016/5/7 3:13,2.8,3,2.8,2,3.8,4
2016/5/7 3:14,2.7,3,2.8,2,3.7,3
2016/5/7 3:15,2.8,3,2.8,2,4.7,3
2016/5/7 3:16,2.9,3,2.9,2,4.1,3
2016/5/7 3:17,2.8,3,2.9,3,3.9,3
2016/5/7 3:18,2.6,3,2.8,3,3.1,3
2016/5/7 3:19,2.7,3,2.7,3,3.9,3
2016/5/7 3:20,2.7,3,2.7,3,4.3,3
2016/5/7 3:21,2.8,3,2.8,3,5,4
2016/5/7 3:22,2.7,3,2.8,3,3.9,2
2016/5/7 3:23,2.8,3,2.8,3,3.9,3
2016/5/7 3:24,2.7,3,2.8,3,4.7,4
2016/5/7 3:25,2.6,3,2.7,3,4.3,3
2016/5/7 3:26,2.6,3,2.6,3,4.3,2
2016/5/7 3:27,2.6,3,2.6,3,3.6,3
2016/5/7 3:28,2.7,3,2.7,3,3.6,3
2016/5/7 3:29,2.6,3,2.7,3,3.2,3
2016/5/7 3:30,2.5,3,2.6,3,2.7,3
2016/5/7 3:31,2.5,3,2.5,3,4.1,3
2016/5/7 3:32,2.6,3,2.6,3,4.5,4
2016/5/7 3:33,2.6,3,2.7,3,4.9,4
2016/5/7 3:34,2.7,3,2.7,3,4.5,5
2016/5/7 3:35,2.6,3,2.7,3,4.2,3
2016/5/7 3:36,2.6,3,2.7,3,4.3,3
2016/5/7 3:37,2.7,3,2.7,3,3.5,3
2016/5/7 3:38,2.7,3,2.7,3,3.7,3
2016/5/7 3:39,2.7,3,2.7,3,3.2,3
2016/5/7 3:40,2.7,3,2.7,3,3.2,2
2016/5/7 3:41,2.7,3,2.7,3,4.7,3
2016/5/7 3:42,2.7,3,2.7,3,4.9,3
2016/5/7 3:43,2.7,3,2.7,3,4.4,3
2016/5/7 3:44,2.8,3,2.8,3,4.5,3
2016/5/7 3:45,2.8,3,2.8,3,4.2,3
2016/5/7 3:46,2.9,3,2.9,3,4.2,3
2016/5/7 3:47,2.9,3,2.9,3,4.2,3
2016/5/7 3:48,2.9,3,2.9,3,3.9,3
2016/5/7 3:49,2.9,2,2.9,3,3,3
2016/5/7 3:50,2.9,3,2.9,3,3.6,3
2016/5/7 3:51,2.9,3,3,3,4.5,2
2016/5/7 3:52,2.8,3,2.9,3,4.1,1
2016/5/7 3:53,2.8,3,2.8,3,3.9,3
2016/5/7 3:54,2.7,3,2.8,3,3.7,3
2016/5/7 3:55,2.6,3,2.7,3,3,3
2016/5/7 3:56,2.5,2,2.6,3,3.7,2
2016/5/7 3:57,2.5,3,2.5,3,3.7,3
2016/5/7 3:58,2.6,3,2.6,3,3.6,3
2016/5/7 3:59,2.6,3,2.6,3,3.3,2
2016/5/7 4:00,2.5,3,2.6,3,3.3,2
2016/5/7 4:01,2.5,3,2.5,3,3.7,3
2016/5/7 4:02,2.5,3,2.5,3,3.3,2
2016/5/7 4:03,2.5,3,2.5,3,5.1,3
2016/5/7 4:04,2.7,3,2.7,3,5.4,3
2016/5/7 4:05,2.7,3,2.7,3,3.6,3
2016/5/7 4:06,2.7,3,2.7,3,3.3,3
2016/5/7 4:07,2.7,3,2.7,3,3.6,3
2016/5/7 4:08,2.7,3,2.7,3,3.9,3
2016/5/7 4:09,2.7,3,2.7,3,3.6,3
2016/5/7 4:10,2.8,3,2.8,3,3.5,3
2016/5/7 4:11,2.8,3,2.8,3,3.3,3
2016/5/7 4:12,2.7,3,2.7,3,3.2,3
2016/5/7 4:13,2.6,3,2.7,3,3.7,4
2016/5/7 4:14,2.5,3,2.6,3,3.2,3
2016/5/7 4:15,2.4,3,2.5,3,3.6,3
2016/5/7 4:16,2.4,3,2.4,3,2.6,2
2016/5/7 4:17,2.3,3,2.4,3,2.9,3
2016/5/7 4:18,2.2,2,2.3,3,3.2,2
2016/5/7 4:19,2.2,3,2.2,3,3.1,4
2016/5/7 4:20,2.1,3,2.2,3,2.7,3
2016/5/7 4:21,2,2,2.1,3,2.4,3
2016/5/7 4:22,2,2,2,3,2.5,2
2016/5/7 4:23,1.9,2,2,3,2.2,2
2016/5/7 4:24,1.8,2,1.9,3,2.6,2
2016/5/7 4:25,1.8,2,1.8,3,2.5,2
2016/5/7 4:26,1.8,2,1.8,3,2.9,3
2016/5/7 4:27,1.8,2,1.8,3,2,3
2016/5/7 4:28,1.7,2,1.8,2,3,4
2016/5/7 4:29,1.7,2,1.7,2,3,2
2016/5/7 4:30,1.7,2,1.7,3,2.7,3
2016/5/7 4:31,1.7,2,1.7,2,3,3
2016/5/7 4:32,1.6,2,1.7,2,2,2
2016/5/7 4:33,1.6,2,1.6,2,2.2,2
2016/5/7 4:34,1.5,2,1.6,2,1.8,1
2016/5/7 4:35,1.5,2,1.5,2,2.7,2
2016/5/7 4:36,1.5,2,1.5,2,2.9,2
2016/5/7 4:37,1.5,2,1.5,2,2.4,3
2016/5/7 4:38,1.5,2,1.5,2,1.9,2
2016/5/7 4:39,1.5,2,1.5,2,2.5,3
2016/5/7 4:40,1.5,2,1.5,2,2.5,4
2016/5/7 4:41,1.5,2,1.5,2,2.6,2
2016/5/7 4:42,1.5,2,1.5,2,2.5,3
2016/5/7 4:43,1.6,2,1.6,2,2.7,3
2016/5/7 4:44,1.7,2,1.7,2,3.2,3
2016/5/7 4:45,1.7,2,1.7,2,2.6,3
2016/5/7 4:46,1.7,2,1.7,2,2.2,3
2016/5/7 4:47,1.7,2,1.7,2,3.5,2
2016/5/7 4:48,1.7,2,1.7,2,2.5,2
2016/5/7 4:49,1.7,2,1.7,2,2.6,2
2016/5/7 4:50,1.7,2,1.7,2,2.4,2
2016/5/7 4:51,1.8,2,1.8,2,3,2
2016/5/7 4:52,1.8,2,1.8,2,2.5,3
2016/5/7 4:53,1.7,2,1.8,2,2.6,3
2016/5/7 4:54,1.6,2,1.7,2,2.5,2
2016/5/7 4:55,1.6,2,1.6,2,1.6,1
2016/5/7 4:56,1.6,2,1.6,2,2.4,1
2016/5/7 4:57,1.5,2,1.6,2,1.8,2
2016/5/7 4:58,1.5,2,1.5,2,1.6,1
2016/5/7 4:59,1.4,2,1.5,2,1.6,16
2016/5/7 5:00,1.4,2,1.4,2,2,2
2016/5/7 5:01,1.3,2,1.4,2,1.9,1
2016/5/7 5:02,1.3,1,1.3,2,2.2,1
2016/5/7 5:03,1.2,1,1.3,2,1.9,2
2016/5/7 5:04,1.2,2,1.2,2,1.9,2
2016/5/7 5:05,1.2,2,1.2,2,1.4,16
2016/5/7 5:06,1.1,1,1.2,2,1.4,2
2016/5/7 5:07,1.1,1,1.1,2,1.5,2
2016/5/7 5:08,1.1,1,1.1,2,1.9,2
2016/5/7 5:09,1.1,1,1.1,2,1.4,16
2016/5/7 5:10,1,1,1.1,2,0.9,1
2016/5/7 5:11,1,2,1,2,1.5,2
2016/5/7 5:12,1,2,1,1,1.5,2
2016/5/7 5:13,0.9,2,1,1,1.5,3
2016/5/7 5:14,0.9,2,0.9,2,1.8,2
2016/5/7 5:15,0.9,2,0.9,2,1.4,2
2016/5/7 5:16,1,2,1,1,2,2
2016/5/7 5:17,0.9,2,1,1,1.3,3
2016/5/7 5:18,0.9,2,0.9,1,1.4,3
2016/5/7 5:19,0.9,2,0.9,1,1.4,3
2016/5/7 5:20,1,2,1,1,1.5,3
2016/5/7 5:21,1,2,1,2,1.5,3
2016/5/7 5:22,1.1,3,1.1,2,1.8,3
2016/5/7 5:23,1.1,3,1.1,2,1.5,3
2016/5/7 5:24,1.1,3,1.1,2,1.4,3
2016/5/7 5:25,1.2,3,1.2,3,2.5,4
2016/5/7 5:26,1.2,3,1.2,3,1.8,2
2016/5/7 5:27,1.2,3,1.2,3,2,3
2016/5/7 5:28,1.3,3,1.3,3,2.1,3
2016/5/7 5:29,1.3,3,1.3,3,2.6,2
2016/5/7 5:30,1.3,3,1.3,3,2,2
2016/5/7 5:31,1.4,3,1.4,3,2.7,3
2016/5/7 5:32,1.4,2,1.4,3,2.2,3
2016/5/7 5:33,1.4,2,1.4,3,2.4,3
2016/5/7 5:34,1.4,2,1.4,3,2.1,2
2016/5/7 5:35,1.4,2,1.5,2,2.7,3
2016/5/7 5:36,1.4,2,1.4,2,1.8,3
2016/5/7 5:37,1.5,2,1.5,2,2,2
2016/5/7 5:38,1.5,2,1.5,2,2.4,2
2016/5/7 5:39,1.4,2,1.4,2,1.8,2
2016/5/7 5:40,1.4,2,1.4,2,1.9,3
2016/5/7 5:41,1.3,2,1.4,2,2.6,3
2016/5/7 5:42,1.3,2,1.3,2,1.4,1
2016/5/7 5:43,1.3,2,1.3,2,2.1,1
2016/5/7 5:44,1.3,2,1.3,2,2.7,3
2016/5/7 5:45,1.2,2,1.3,2,1.8,2
2016/5/7 5:46,1.2,2,1.2,2,1.6,3
2016/5/7 5:47,1.3,2,1.3,2,2,4
2016/5/7 5:48,1.3,2,1.3,2,1.8,3
2016/5/7 5:49,1.3,2,1.3,2,2.2,3
2016/5/7 5:50,1.3,2,1.3,2,1.9,4
2016/5/7 5:51,1.3,2,1.3,2,1.9,2
2016/5/7 5:52,1.4,3,1.4,3,2.2,3
2016/5/7 5:53,1.4,3,1.4,3,2.7,2
2016/5/7 5:54,1.4,3,1.4,3,2.6,3
2016/5/7 5:55,1.5,3,1.5,3,2.5,3
2016/5/7 5:56,1.6,3,1.6,3,2.4,4
2016/5/7 5:57,1.6,3,1.6,3,1.9,3
2016/5/7 5:58,1.5,3,1.5,3,0.9,3
2016/5/7 5:59,1.4,3,1.4,3,1.5,2
2016/5/7 6:00,1.4,3,1.4,3,2.2,3
2016/5/7 6:01,1.5,3,1.5,3,1.8,2
2016/5/7 6:02,1.4,3,1.4,3,2,4
2016/5/7 6:03,1.4,3,1.4,3,1.5,3
2016/5/7 6:04,1.3,3,1.4,3,1.5,16
2016/5/7 6:05,1.2,3,1.3,3,1.6,2
2016/5/7 6:06,1.1,3,1.2,3,1.4,4
2016/5/7 6:07,1.1,3,1.1,3,1.9,3
2016/5/7 6:08,1.2,3,1.2,3,2.1,3
2016/5/7 6:09,1.3,3,1.3,3,2.2,3
2016/5/7 6:10,1.2,3,1.3,3,1.6,3
2016/5/7 6:11,1.2,3,1.2,3,2,3
2016/5/7 6:12,1.2,3,1.2,3,2,3
2016/5/7 6:13,1.3,3,1.3,3,2.7,4
2016/5/7 6:14,1.4,3,1.4,3,2.6,3
2016/5/7 6:15,1.4,3,1.4,3,2.2,3
2016/5/7 6:16,1.4,3,1.4,3,0.6,3
2016/5/7 6:17,1.3,3,1.4,3,1.5,2
2016/5/7 6:18,1.3,3,1.3,3,1.8,3
2016/5/7 6:19,1.3,3,1.3,3,2,4
2016/5/7 6:20,1.4,3,1.4,3,2.4,4
2016/5/7 6:21,1.4,3,1.4,3,2.9,3
2016/5/7 6:22,1.4,3,1.4,3,2.6,3
2016/5/7 6:23,1.3,3,1.4,3,1.8,3
2016/5/7 6:24,1.3,3,1.3,3,1.6,4
2016/5/7 6:25,1.2,3,1.2,3,1,4
2016/5/7 6:26,1.3,3,1.3,3,2.1,3
2016/5/7 6:27,1.3,3,1.3,3,2.2,3
2016/5/7 6:28,1.4,3,1.4,3,2.5,3
2016/5/7 6:29,1.4,3,1.4,3,2.2,2
2016/5/7 6:30,1.4,3,1.4,3,2.5,3
2016/5/7 6:31,1.3,3,1.4,3,2.2,3
2016/5/7 6:32,1.2,3,1.3,3,1.3,2
2016/5/7 6:33,1.2,2,1.3,3,2,16
2016/5/7 6:34,1.3,2,1.3,3,2.9,3
2016/5/7 6:35,1.6,2,1.6,2,3.9,3
2016/5/7 6:36,1.8,2,1.8,2,3.8,3
2016/5/7 6:37,1.7,3,1.8,2,2.1,5
2016/5/7 6:38,1.6,2,1.7,2,1.5,12
2016/5/7 6:39,1.5,2,1.6,2,1.3,13
2016/5/7 6:40,1.5,2,1.5,2,2.6,3
2016/5/7 6:41,1.7,2,1.7,2,3.5,3
2016/5/7 6:42,1.8,3,1.8,2,3.2,3
2016/5/7 6:43,1.7,3,1.8,2,1.9,2
2016/5/7 6:44,1.6,3,1.7,2,0.9,11
2016/5/7 6:45,1.3,3,1.6,2,0.9,12
2016/5/7 6:46,1.1,2,1.3,2,1.3,3
2016/5/7 6:47,1.2,2,1.2,2,2.2,3
2016/5/7 6:48,1.3,2,1.3,2,3.3,3
2016/5/7 6:49,1.4,3,1.4,2,2.9,3
2016/5/7 6:50,1.3,2,1.4,2,1,2
2016/5/7 6:51,1.1,2,1.3,2,1.3,16
2016/5/7 6:52,0.9,2,1.1,3,0.6,1
2016/5/7 6:53,0.9,2,0.9,3,0.8,4
2016/5/7 6:54,0.9,2,0.9,3,1,4
2016/5/7 6:55,1,2,1,2,2.5,4
2016/5/7 6:56,1.2,3,1.2,2,3.2,4
2016/5/7 6:57,1.3,3,1.3,2,3.1,3
2016/5/7 6:58,1.2,3,1.3,2,2.2,3
2016/5/7 6:59,1.2,3,1.2,3,1.1,4
2016/5/7 7:00,1.1,3,1.1,2,1.3,12
2016/5/7 7:01,1.1,3,1.2,3,1.3,11
2016/5/7 7:02,1.2,3,1.2,3,1.5,3
2016/5/7 7:03,1.3,3,1.3,3,2,2
2016/5/7 7:04,1.4,2,1.4,2,1.9,3
2016/5/7 7:05,1.4,2,1.4,2,2,3
2016/5/7 7:06,1.2,2,1.3,2,1.6,2
2016/5/7 7:07,1,2,1.2,2,1,1
2016/5/7 7:08,0.9,2,1,2,1.1,3
2016/5/7 7:09,1,2,1,2,1.3,2
2016/5/7 7:10,1.1,2,1.1,2,1.9,3
2016/5/7 7:11,1.1,2,1.1,2,1.6,2
2016/5/7 7:12,1.1,2,1.2,2,1.4,4
2016/5/7 7:13,1,3,1.1,2,1,3
2016/5/7 7:14,0.9,3,1,2,0.6,4
2016/5/7 7:15,0.9,3,0.9,2,1.5,1
2016/5/7 7:16,0.8,3,0.9,2,1.3,2
2016/5/7 7:17,0.8,2,0.8,2,0.5,2
2016/5/7 7:18,0.8,2,0.8,2,1.6,3
2016/5/7 7:19,0.8,3,0.8,2,1.3,3
2016/5/7 7:20,0.8,3,0.8,2,1.5,3
2016/5/7 7:21,0.7,3,0.8,2,1.4,3
2016/5/7 7:22,0.7,3,0.7,2,1.1,2
2016/5/7 7:23,0.7,2,0.7,3,0.5,2
2016/5/7 7:24,0.7,2,0.7,3,1,1
2016/5/7 7:25,0.7,2,0.7,3,1.3,16
2016/5/7 7:26,0.7,2,0.7,3,1.1,1
2016/5/7 7:27,0.8,2,0.8,2,1.1,1
2016/5/7 7:28,0.7,2,0.8,2,0.8,2
2016/5/7 7:29,0.7,2,0.7,3,0.5,2
2016/5/7 7:30,0.6,2,0.7,3,1,1
2016/5/7 7:31,0.6,2,0.6,2,0.8,2
2016/5/7 7:32,0.6,1,0.6,2,0.6,1
2016/5/7 7:33,0.5,1,0.5,2,0.4,1
2016/5/7 7:34,0.5,1,0.5,2,0.9,2
2016/5/7 7:35,0.5,2,0.5,2,1,2
2016/5/7 7:36,0.5,2,0.5,2,1,2
2016/5/7 7:37,0.5,2,0.5,2,0.9,3
2016/5/7 7:38,0.5,2,0.5,2,1,4
2016/5/7 7:39,0.5,2,0.5,2,0.6,4
2016/5/7 7:40,0.4,2,0.5,2,0.1,4
2016/5/7 7:41,0.4,2,0.4,2,0.1,4
2016/5/7 7:42,0.4,3,0.4,1,0.1,4
2016/5/7 7:43,0.4,3,0.4,1,0.1,4
2016/5/7 7:44,0.3,3,0.4,1,0.1,4
2016/5/7 7:45,0.3,3,0.3,2,0.5,2
2016/5/7 7:46,0.2,3,0.3,2,0.8,3
2016/5/7 7:47,0.2,3,0.2,2,0.8,3
2016/5/7 7:48,0.2,3,0.2,2,0.6,4
2016/5/7 7:49,0.2,3,0.2,2,0,3
2016/5/7 7:50,0.2,3,0.2,2,0.8,3
2016/5/7 7:51,0.3,3,0.3,2,1.3,2
2016/5/7 7:52,0.5,3,0.5,3,2.9,3
2016/5/7 7:53,0.7,3,0.7,3,3,4
2016/5/7 7:54,0.9,3,0.9,3,2.6,3
2016/5/7 7:55,1,3,1,3,2.7,3
2016/5/7 7:56,1.1,3,1.1,3,1.9,3
2016/5/7 7:57,1.1,3,1.1,3,0.8,2
2016/5/7 7:58,1.1,3,1.1,3,0.3,5
2016/5/7 7:59,1.1,3,1.1,3,1,2
2016/5/7 8:00,1.2,3,1.2,3,1.3,3
2016/5/7 8:01,1.2,3,1.2,3,1.3,3
2016/5/7 8:02,1,2,1.1,3,0.6,1
2016/5/7 8:03,0.8,2,0.9,3,0.8,15
2016/5/7 8:04,0.7,2,0.7,3,1.8,3
2016/5/7 8:05,0.7,2,0.7,3,1.8,3
2016/5/7 8:06,0.6,2,0.7,3,1.4,4
2016/5/7 8:07,0.6,3,0.6,3,0.5,3
2016/5/7 8:08,0.7,3,0.7,3,1,13
2016/5/7 8:09,0.7,3,0.7,3,0.8,13
2016/5/7 8:10,0.6,2,0.7,3,0.1,13
2016/5/7 8:11,0.6,3,0.6,3,1.3,5
2016/5/7 8:12,0.7,3,0.7,2,1.6,4
2016/5/7 8:13,0.7,4,0.7,2,1.4,3
2016/5/7 8:14,0.6,4,0.7,2,1.1,3
2016/5/7 8:15,0.5,5,0.6,2,0.1,8
2016/5/7 8:16,0.4,6,0.5,3,0.5,6
2016/5/7 8:17,0.5,6,0.5,3,1,4
2016/5/7 8:18,0.5,6,0.5,3,0.8,6
2016/5/7 8:19,0.5,5,0.5,3,0.5,4
2016/5/7 8:20,0.5,5,0.5,3,1.1,4
2016/5/7 8:21,0.6,5,0.6,3,1.4,4
2016/5/7 8:22,0.5,5,0.6,3,1,5
2016/5/7 8:23,0.6,6,0.6,4,1.5,6
2016/5/7 8:24,0.6,6,0.6,4,1.1,6
2016/5/7 8:25,0.7,5,0.7,5,1.5,5
2016/5/7 8:26,0.8,5,0.8,5,1.4,4
2016/5/7 8:27,0.7,5,0.8,5,0.6,5
2016/5/7 8:28,0.7,5,0.7,5,0.6,5
2016/5/7 8:29,0.8,5,0.8,5,1.4,5
2016/5/7 8:30,0.8,5,0.8,5,1.5,4
2016/5/7 8:31,0.9,5,0.9,5,1.8,5
2016/5/7 8:32,0.9,5,0.9,5,1.8,5
2016/5/7 8:33,0.9,5,0.9,5,1.3,5
2016/5/7 8:34,0.9,5,0.9,5,0.9,6
2016/5/7 8:35,0.8,5,0.9,5,1.4,7
2016/5/7 8:36,0.9,5,0.9,5,1.5,7
2016/5/7 8:37,0.9,6,0.9,5,1.1,7
2016/5/7 8:38,0.9,6,0.9,5,1.6,8
2016/5/7 8:39,0.9,6,0.9,5,1.5,6
2016/5/7 8:40,0.9,6,0.9,5,1.1,5
2016/5/7 8:41,0.8,6,0.9,5,0.5,6
2016/5/7 8:42,0.6,6,0.7,5,0.8,7
2016/5/7 8:43,0.6,7,0.6,5,0.8,7
2016/5/7 8:44,0.6,7,0.6,5,0.6,8
2016/5/7 8:45,0.6,7,0.6,5,0.6,8
2016/5/7 8:46,0.5,7,0.6,5,0.4,8
2016/5/7 8:47,0.4,7,0.5,6,0,8
2016/5/7 8:48,0.3,7,0.4,6,0.4,8
2016/5/7 8:49,0.2,8,0.3,6,0.4,9
2016/5/7 8:50,0.3,8,0.3,6,1.1,7
2016/5/7 8:51,0.3,8,0.3,6,1.6,8
2016/5/7 8:52,0.4,8,0.4,6,1.8,8
2016/5/7 8:53,0.5,8,0.5,7,1.4,8
2016/5/7 8:54,0.5,8,0.5,7,1.3,7
2016/5/7 8:55,0.5,8,0.5,7,0.8,6
2016/5/7 8:56,0.5,8,0.5,7,0.5,6
2016/5/7 8:57,0.5,8,0.5,8,0.6,5
2016/5/7 8:58,0.5,7,0.5,8,0.6,5
2016/5/7 8:59,0.6,7,0.6,7,1,8
2016/5/7 9:00,0.5,7,0.6,7,0.8,9
2016/5/7 9:01,0.4,7,0.5,7,0.4,8
2016/5/7 9:02,0.3,7,0.4,7,0.6,9
2016/5/7 9:03,0.3,7,0.3,7,0.6,9
2016/5/7 9:04,0.3,8,0.3,7,0.4,9
2016/5/7 9:05,0.2,8,0.3,7,0.4,9
2016/5/7 9:06,0.3,8,0.3,7,0.5,9
2016/5/7 9:07,0.3,9,0.3,7,0.3,9
2016/5/7 9:08,0.2,9,0.3,7,0,9
2016/5/7 9:09,0.2,9,0.2,7,0,9
2016/5/7 9:10,0.2,9,0.2,7,0.6,1
2016/5/7 9:11,0.2,9,0.2,7,0.5,3
2016/5/7 9:12,0.2,9,0.2,7,0.1,1
2016/5/7 9:13,0.2,8,0.2,7,0.8,2
2016/5/7 9:14,0.2,7,0.2,8,0.8,2
2016/5/7 9:15,0.2,4,0.2,8,0.4,3
2016/5/7 9:16,0.1,4,0.2,8,0.1,4
2016/5/7 9:17,0.2,3,0.2,9,0.6,4
2016/5/7 9:18,0.2,3,0.2,9,0.9,3
2016/5/7 9:19,0.3,3,0.3,3,0.9,6
2016/5/7 9:20,0.3,3,0.3,3,0.8,10
2016/5/7 9:21,0.3,3,0.3,3,0.5,12
2016/5/7 9:22,0.3,4,0.3,3,0.5,4
2016/5/7 9:23,0.3,4,0.3,3,1.3,5
2016/5/7 9:24,0.5,4,0.5,4,2,5
2016/5/7 9:25,0.6,5,0.6,5,1.8,5
2016/5/7 9:26,0.6,5,0.6,5,1.9,6
2016/5/7 9:27,0.7,5,0.7,5,1.3,11
2016/5/7 9:28,0.7,6,0.7,5,1.5,10
2016/5/7 9:29,0.7,7,0.7,5,0.8,10
2016/5/7 9:30,0.7,7,0.7,5,0.5,14
2016/5/7 9:31,0.7,7,0.7,5,0.9,5
2016/5/7 9:32,0.8,7,0.8,7,1.5,5
2016/5/7 9:33,0.8,7,0.8,7,1.1,5
2016/5/7 9:34,0.7,7,0.8,7,0.9,8
2016/5/7 9:35,0.6,8,0.7,7,0.8,7
2016/5/7 9:36,0.5,9,0.6,7,0.4,9
2016/5/7 9:37,0.5,8,0.5,7,0.1,9
2016/5/7 9:38,0.4,7,0.5,7,0.4,3
2016/5/7 9:39,0.4,7,0.4,7,1,6
2016/5/7 9:40,0.4,6,0.4,7,1.1,6
2016/5/7 9:41,0.4,6,0.4,7,0.4,6
2016/5/7 9:42,0.3,6,0.4,7,0,6
2016/5/7 9:43,0.3,7,0.3,7,0.3,10
2016/5/7 9:44,0.3,6,0.3,7,1.1,5
2016/5/7 9:45,0.3,6,0.3,8,1.1,6
2016/5/7 9:46,0.3,5,0.3,9,0.8,6
2016/5/7 9:47,0.3,5,0.3,8,0.4,2
2016/5/7 9:48,0.4,5,0.4,7,0.8,6
2016/5/7 9:49,0.3,6,0.4,6,0.5,6
2016/5/7 9:50,0.3,6,0.3,6,0.5,14
2016/5/7 9:51,0.3,6,0.3,6,0.5,9
2016/5/7 9:52,0.3,7,0.3,5,1.3,8
2016/5/7 9:53,0.4,7,0.4,5,1,8
2016/5/7 9:54,0.3,7,0.4,5,0.3,10
2016/5/7 9:55,0.3,7,0.3,5,1.1,9
2016/5/7 9:56,0.3,8,0.3,5,0.6,9
2016/5/7 9:57,0.3,8,0.3,5,0.5,8
2016/5/7 9:58,0.3,8,0.3,5,1.8,9
2016/5/7 9:59,0.4,8,0.4,7,1.6,9
2016/5/7 10:00,0.4,8,0.4,7,1.8,9
2016/5/7 10:01,0.6,8,0.6,8,2,8
2016/5/7 10:02,0.6,8,0.6,8,1.8,9
2016/5/7 10:03,0.6,9,0.6,8,1.5,11
2016/5/7 10:04,0.7,9,0.7,9,1.4,10
2016/5/7 10:05,0.6,9,0.7,9,0.8,7
2016/5/7 10:06,0.6,9,0.6,9,0.8,8
2016/5/7 10:07,0.7,8,0.7,9,1.6,6
2016/5/7 10:08,0.7,8,0.7,9,1.3,6
2016/5/7 10:09,0.7,7,0.8,8,1.6,6
2016/5/7 10:10,0.7,7,0.7,8,0.3,4
2016/5/7 10:11,0.5,7,0.7,8,0.1,10
2016/5/7 10:12,0.5,7,0.5,8,1.3,8
2016/5/7 10:13,0.5,6,0.5,8,1.3,9
2016/5/7 10:14,0.5,6,0.5,8,0.9,8
2016/5/7 10:15,0.5,6,0.5,8,0.8,6
2016/5/7 10:16,0.5,6,0.5,8,0.4,6
2016/5/7 10:17,0.5,7,0.5,8,0.5,9
2016/5/7 10:18,0.4,7,0.4,8,1.4,9
2016/5/7 10:19,0.4,8,0.4,7,1.4,10
2016/5/7 10:20,0.5,8,0.5,7,1,11
2016/5/7 10:21,0.5,8,0.5,7,0.6,7
2016/5/7 10:22,0.5,8,0.5,7,0.9,8
2016/5/7 10:23,0.5,8,0.5,6,0.8,9
2016/5/7 10:24,0.4,7,0.5,6,0.6,3
2016/5/7 10:25,0.4,7,0.4,6,1,6
2016/5/7 10:26,0.5,8,0.5,6,1,6
2016/5/7 10:27,0.5,8,0.5,8,0.3,7
2016/5/7 10:28,0.5,7,0.5,8,0.6,6
2016/5/7 10:29,0.4,7,0.4,8,0.9,7
2016/5/7 10:30,0.4,7,0.4,8,2,8
2016/5/7 10:31,0.5,7,0.5,8,2,9
2016/5/7 10:32,0.5,7,0.5,8,1.6,9
2016/5/7 10:33,0.5,7,0.5,8,1.1,10
2016/5/7 10:34,0.5,8,0.6,8,0.6,13
2016/5/7 10:35,0.5,8,0.5,8,0.8,9
2016/5/7 10:36,0.5,9,0.5,8,0.4,10
2016/5/7 10:37,0.5,9,0.5,8,0.1,10
2016/5/7 10:38,0.4,9,0.5,8,0.1,1
2016/5/7 10:39,0.4,10,0.5,8,0.8,11
2016/5/7 10:40,0.4,10,0.4,8,1.6,8
2016/5/7 10:41,0.4,10,0.5,8,1.3,8
2016/5/7 10:42,0.5,10,0.5,8,2.9,8
2016/5/7 10:43,0.5,10,0.5,8,2.2,9
2016/5/7 10:44,0.6,9,0.6,10,1.9,12
2016/5/7 10:45,0.7,10,0.7,10,1.8,12
2016/5/7 10:46,0.8,10,0.8,10,1,11
2016/5/7 10:47,0.8,10,0.8,10,0.6,8
2016/5/7 10:48,0.9,10,0.9,10,1.9,8
2016/5/7 10:49,1,9,1,10,2.4,8
2016/5/7 10:50,1,9,1,10,1.4,8
2016/5/7 10:51,1,9,1,10,1.8,8
2016/5/7 10:52,1,9,1,10,1.8,9
2016/5/7 10:53,1,10,1,10,1.9,12
2016/5/7 10:54,1,10,1,10,2.1,14
2016/5/7 10:55,1,10,1,10,2.1,13
2016/5/7 10:56,1.1,11,1.1,11,2,15
2016/5/7 10:57,1.2,11,1.2,11,1.6,13
2016/5/7 10:58,1.1,11,1.2,11,1.1,13
2016/5/7 10:59,1.1,12,1.1,11,1.5,9
2016/5/7 11:00,1.1,12,1.1,11,1.6,8
2016/5/7 11:01,1,12,1,11,2.1,11
2016/5/7 11:02,1,12,1.1,11,2,9
2016/5/7 11:03,1,12,1.1,11,1.6,12
2016/5/7 11:04,1,12,1,11,3.5,10
2016/5/7 11:05,1.1,12,1.1,11,2.6,11
2016/5/7 11:06,1.2,11,1.2,11,3.3,10
2016/5/7 11:07,1.3,11,1.3,11,3,10
2016/5/7 11:08,1.4,11,1.4,11,2.7,11
2016/5/7 11:09,1.6,11,1.6,11,3.6,10
2016/5/7 11:10,1.7,11,1.7,10,3.3,10
2016/5/7 11:11,1.9,11,1.9,11,4.5,10
2016/5/7 11:12,2.1,11,2.1,11,4.3,9
2016/5/7 11:13,2.3,10,2.3,10,4.3,10
2016/5/7 11:14,2.3,10,2.3,10,4.3,9
2016/5/7 11:15,2.4,10,2.4,10,3.6,11
2016/5/7 11:16,2.4,10,2.5,10,5.4,9
2016/5/7 11:17,2.5,10,2.5,10,4.3,11
2016/5/7 11:18,2.6,10,2.6,10,4.4,10
2016/5/7 11:19,2.6,10,2.6,10,4.2,9
2016/5/7 11:20,2.7,10,2.7,10,4.4,10
2016/5/7 11:21,2.7,10,2.7,10,4.1,11
2016/5/7 11:22,2.7,10,2.8,10,3.6,10
2016/5/7 11:23,2.6,10,2.7,10,2.2,11
2016/5/7 11:24,2.5,11,2.6,10,3,13
2016/5/7 11:25,2.5,11,2.5,10,3.3,13
2016/5/7 11:26,2.4,11,2.5,10,2.9,13
2016/5/7 11:27,2.3,11,2.4,10,2.2,11
2016/5/7 11:28,2.1,11,2.2,10,1.9,9
2016/5/7 11:29,2,11,2.1,10,3.7,9
2016/5/7 11:30,1.9,11,2,10,3.8,10
2016/5/7 11:31,1.9,11,1.9,10,3.8,10
2016/5/7 11:32,1.9,11,1.9,10,4.1,10
2016/5/7 11:33,2,11,2,10,3,13
2016/5/7 11:34,2.2,11,2.2,11,3.8,11
2016/5/7 11:35,2.1,11,2.2,11,3.7,12
2016/5/7 11:36,2.2,11,2.2,11,3.3,11
2016/5/7 11:37,2.3,11,2.3,11,4.9,11
2016/5/7 11:38,2.6,10,2.6,10,5.1,10
2016/5/7 11:39,2.8,10,2.8,10,5.2,9
2016/5/7 11:40,2.9,10,2.9,10,4.7,9
2016/5/7 11:41,2.9,10,2.9,10,4.5,10
2016/5/7 11:42,2.9,10,2.9,10,4.3,11
2016/5/7 11:43,3,10,3,10,4.4,11
2016/5/7 11:44,3.1,10,3.1,10,4.9,10
2016/5/7 11:45,3.1,10,3.1,10,6,11
2016/5/7 11:46,3.2,10,3.2,10,5.1,10
2016/5/7 11:47,3.4,10,3.4,10,5.4,11
2016/5/7 11:48,3.3,10,3.4,10,4.7,10
2016/5/7 11:49,3.3,10,3.3,10,5.5,9
2016/5/7 11:50,3.3,10,3.3,10,5.8,10
2016/5/7 11:51,3.2,10,3.3,10,4.5,9
2016/5/7 11:52,3.3,10,3.3,10,6,9
2016/5/7 11:53,3.2,10,3.3,10,3.9,11
2016/5/7 11:54,3.1,10,3.2,10,5,9
2016/5/7 11:55,3.1,10,3.1,10,6.8,9
2016/5/7 11:56,3.1,10,3.1,10,7.1,9
2016/5/7 11:57,3.1,10,3.2,10,6.1,10
2016/5/7 11:58,3.1,10,3.1,10,4.5,9
2016/5/7 11:59,3.1,10,3.2,10,5.5,10
2016/5/7 12:00,3,10,3.1,10,4.7,10
2016/5/7 12:01,3.1,10,3.1,10,4.7,10